GFSWCAN_925_thetae_000.txt.gz
Theta_e
297 297 297 296 296 297 298 298 299 300 301 302 302 302 303 302 302 302 303 302 302 304 305 304 302 301 306 310 311 309 310 310 310 310 314 315 318 317 318 319 321 323 325 325 329 329 328 328 330 329 328 336 330 331
297 297 297 296 296 297 299 298 299 300 300 302 303 302 302 302 302 302 302 301 302 304 305 303 304 303 305 307 310 310 310 310 309 309 308 311 313 315 317 319 318 321 322 324 324 326 331 330 328 331 329 329 331 333
299 297 297 296 296 298 299 298 298 299 299 300 302 303 302 302 302 302 304 303 301 303 305 306 306 305 304 305 306 310 310 311 311 313 315 310 312 312 317 316 317 317 318 321 322 323 325 325 329 330 332 332 332 332
300 299 297 297 297 298 298 298 298 298 300 300 300 302 302 302 302 302 304 303 304 305 306 307 304 305 304 304 305 306 307 309 310 312 314 311 311 310 312 315 316 315 316 317 319 321 321 321 322 327 331 331 330 330
299 300 299 298 297 297 298 298 298 298 299 301 300 301 302 302 301 303 303 302 304 305 306 306 305 305 304 305 307 307 306 308 308 311 314 314 313 314 312 312 313 317 317 316 317 320 322 322 323 322 330 330 330 329
298 299 300 299 297 298 298 299 300 300 301 302 301 300 300 301 301 304 305 304 304 304 305 306 305 306 305 307 308 308 307 307 308 310 311 312 313 316 316 315 314 314 318 321 320 325 325 327 327 327 327 329 329 330
298 298 299 298 298 299 299 299 300 301 301 301 300 301 300 300 302 304 305 303 302 304 305 307 307 307 307 306 307 308 307 307 308 308 309 310 312 314 315 316 313 315 319 320 320 320 322 322 324 322 326 328 326 329
298 298 298 298 299 299 299 299 300 301 301 301 300 301 301 300 301 303 304 302 303 304 305 307 307 308 307 308 308 308 309 308 309 308 309 309 309 312 314 312 313 313 314 316 317 317 320 322 324 327 325 327 329 330
297 298 298 298 298 298 299 300 302 301 301 300 301 301 302 303 305 304 302 303 304 304 306 306 309 309 307 308 308 309 309 309 308 311 309 312 312 313 310 312 312 313 314 315 315 315 316 320 323 326 327 327 326 327
297 297 298 298 298 299 300 302 301 301 301 301 303 304 305 304 302 303 304 305 304 304 304 306 306 308 305 306 309 308 308 309 313 310 309 311 312 311 311 312 313 315 316 316 317 317 317 319 324 326 327 327 326 326
297 297 298 298 298 299 301 302 301 301 302 302 303 305 303 302 305 305 305 306 306 306 306 307 307 308 306 309 309 308 310 311 312 313 312 311 311 311 313 313 314 316 316 317 318 318 321 324 327 327 327 327 326 327
297 298 298 298 299 300 301 302 301 303 303 302 301 300 303 306 307 307 308 307 307 308 307 309 309 308 306 304 304 306 309 311 314 313 314 312 314 315 316 315 315 316 318 319 319 321 323 325 325 327 328 327 327 328
296 298 298 299 300 301 302 302 302 302 302 304 304 305 306 307 309 307 308 307 308 308 308 309 310 308 308 307 308 307 310 313 306 313 314 316 316 316 316 315 316 317 318 321 320 321 323 323 324 327 328 329 329 330
295 298 298 299 300 301 302 302 302 303 304 306 306 309 308 308 308 307 308 307 306 307 308 308 308 310 310 310 310 311 312 308 313 316 317 316 315 314 313 314 316 317 318 319 319 321 321 321 323 324 325 325 326 330
295 298 298 300 300 302 302 302 302 304 305 307 307 308 308 307 306 308 308 307 308 309 308 310 309 309 310 311 310 310 313 316 314 315 313 315 313 311 312 314 314 316 316 315 316 318 319 319 321 322 322 324 325 325
295 299 300 300 301 302 302 303 305 305 306 307 306 307 308 309 309 308 309 310 309 309 310 310 311 312 312 307 311 311 313 311 309 313 313 313 312 311 312 312 311 311 311 311 312 316 317 316 317 316 316 317 320 322
297 301 299 300 301 303 302 305 305 305 307 306 307 307 308 308 308 308 308 308 308 309 311 309 311 312 309 311 312 307 309 305 307 312 312 314 313 312 312 311 310 310 310 311 311 312 312 312 313 315 317 316 316 319
299 300 299 301 302 304 304 305 306 305 305 306 308 307 308 307 307 307 306 307 307 307 308 309 309 310 311 311 311 304 303 302 308 310 312 313 313 311 312 312 311 311 311 311 311 311 312 312 312 313 313 314 315 317
297 298 300 301 303 304 306 306 306 307 307 307 307 307 307 307 307 306 306 307 307 307 306 307 307 309 310 308 308 308 309 308 309 309 311 311 313 312 312 312 311 311 311 311 310 310 309 309 310 311 312 313 314 314
298 299 299 302 303 306 305 306 305 307 307 307 307 307 307 306 307 306 306 306 307 307 308 307 308 307 306 306 306 307 309 310 312 311 311 313 312 312 312 312 312 311 310 309 309 310 310 310 309 308 309 310 312 312
300 301 301 303 306 305 306 306 306 307 308 308 306 306 307 306 306 306 306 306 307 307 308 307 308 307 307 307 307 309 311 309 308 308 309 310 311 311 310 309 310 311 312 311 311 310 309 310 309 309 309 309 310 310
301 299 304 304 304 304 305 305 306 306 307 306 306 306 306 307 306 306 306 307 306 306 306 307 308 308 307 307 308 309 309 308 307 306 306 307 309 311 311 310 310 310 312 312 311 311 309 309 308 308 308 309 308 307
300 302 303 302 303 303 304 303 306 305 306 305 306 306 305 306 306 306 307 306 306 306 306 307 307 306 307 307 307 308 309 308 308 308 307 307 307 307 308 309 309 310 311 311 310 310 310 308 309 309 309 309 309 309
299 301 302 303 303 304 303 303 304 305 305 305 305 305 305 305 305 306 306 306 305 306 306 307 307 308 307 308 308 308 307 308 308 308 307 307 308 308 307 308 308 309 309 309 310 311 311 310 309 310 309 309 309 309
301 303 302 304 303 302 301 301 302 303 303 304 305 305 306 305 306 305 305 304 304 305 305 305 307 307 308 308 307 306 305 306 308 308 307 308 307 306 307 306 306 306 308 308 309 309 309 310 310 310 309 310 310 310
302 302 302 303 303 302 301 300 301 301 302 302 304 304 304 305 305 304 304 302 303 304 304 305 304 303 306 306 307 306 305 305 306 307 305 305 306 307 308 308 307 306 305 307 308 308 308 309 310 311 311 311 310 311
302 303 303 302 303 301 302 301 301 302 302 302 302 301 303 303 304 303 302 300 300 301 303 303 304 304 303 302 302 303 304 303 304 303 303 303 302 303 304 305 305 302 303 304 306 307 307 307 308 308 308 309 309 309
300 301 302 303 301 302 300 300 301 302 302 301 300 300 300 301 303 302 300 298 298 299 300 302 302 302 302 300 299 300 302 303 303 303 302 301 300 299 300 301 300 299 301 301 302 305 306 306 307 307 307 308 307 307
301 302 301 301 300 301 301 300 300 300 301 300 299 298 298 298 298 298 297 296 297 297 298 299 302 302 301 299 299 298 298 300 304 305 304 304 303 299 297 298 299 299 300 301 300 300 302 304 305 306 306 306 306 305
300 301 301 300 299 299 299 299 299 299 299 299 298 298 298 298 297 296 296 296 296 296 297 298 301 302 302 301 300 298 296 296 296 298 301 300 298 295 295 295 296 297 298 298 299 299 299 303 304 304 304 304 301 303
299 300 299 300 299 299 298 299 299 299 299 298 298 298 298 298 297 296 296 296 296 297 297 298 300 301 300 299 298 299 299 294 293 292 292 293 293 293 293 294 294 295 296 296 296 296 297 296 295 294 294 294 294 294
299 299 299 299 299 299 299 299 298 298 298 298 298 298 298 298 297 297 296 295 296 297 297 298 299 298 296 295 294 293 292 292 291 290 290 291 291 291 291 292 293 293 294 294 293 293 292 292 292 292 292 291 291 291
299 299 299 299 299 298 298 299 300 299 298 301 298 298 298 297 297 297 294 294 295 296 296 294 293 292 292 292 291 290 290 289 286 286 286 285 286 287 290 290 291 291 292 292 292 292 291 291 290 290 290 290 289 288

GFSWCAN_925_thetae_003.txt.gz
Theta_e
299 299 297 297 297 297 298 298 298 299 300 300 302 303 302 302 302 303 303 303 304 305 305 305 305 305 307 308 313 312 310 311 312 313 315 316 319 321 320 321 322 323 328 327 328 326 327 326 326 328 328 328 328 327
299 300 299 298 298 298 298 298 298 299 299 301 301 303 302 303 302 302 305 305 305 304 305 304 305 305 304 304 306 310 312 311 309 311 313 314 316 316 321 323 323 325 323 326 326 327 329 326 327 330 329 330 330 330
299 299 300 299 298 298 298 298 299 300 301 301 301 302 302 302 302 302 304 305 305 307 308 307 307 307 306 306 306 310 311 311 313 313 317 312 314 312 317 321 320 321 323 326 328 326 328 327 327 329 328 329 329 329
298 299 299 299 298 299 300 300 300 301 301 301 302 301 302 303 302 301 304 306 305 307 308 309 306 307 306 306 306 307 308 308 310 311 314 314 312 310 311 314 318 321 320 323 324 324 326 326 327 328 328 329 333 332
298 298 299 299 299 299 299 299 300 301 302 301 303 301 301 300 302 302 305 305 305 306 308 307 306 306 306 306 306 307 308 309 309 310 314 313 311 311 311 311 312 314 318 320 324 323 324 324 325 326 328 330 331 330
297 298 298 298 298 298 298 299 300 301 302 302 303 301 301 301 300 303 307 305 304 305 307 308 307 307 306 307 308 308 309 309 309 309 309 310 313 314 316 313 312 312 314 317 319 325 326 326 328 327 327 329 330 330
297 297 298 298 298 298 299 300 301 302 302 302 302 301 301 301 302 304 306 304 302 305 306 308 309 308 307 308 308 309 309 309 309 309 308 309 310 312 313 315 314 313 312 315 319 321 323 322 324 324 325 325 326 329
297 297 297 298 298 298 299 300 302 302 301 301 301 301 301 301 302 303 305 303 303 305 307 308 309 307 308 310 309 307 309 309 308 309 309 309 308 311 313 311 311 313 314 313 314 319 320 319 322 324 325 325 327 329
295 296 297 298 298 299 300 301 302 301 301 301 301 301 304 304 305 306 302 302 305 305 308 308 309 312 308 308 310 310 309 310 309 309 309 309 310 310 310 310 310 312 314 314 315 318 318 318 317 321 323 323 323 325
293 294 296 298 298 299 300 301 301 301 302 304 305 306 307 306 303 303 306 306 305 305 305 308 308 311 306 306 311 311 310 310 312 309 309 310 311 310 310 310 310 312 312 314 315 315 317 317 316 316 319 321 323 323
292 293 296 298 299 299 300 301 302 303 304 304 305 307 305 304 306 307 308 307 308 307 307 309 309 311 307 309 309 307 312 311 312 312 311 311 311 312 310 311 311 311 313 313 315 315 316 317 318 318 317 318 322 323
292 293 295 298 299 300 301 302 301 304 304 303 302 303 305 308 308 308 309 308 309 309 308 310 310 311 309 304 305 307 311 311 313 314 314 312 311 312 312 311 311 312 312 313 315 316 317 317 317 320 323 325 323 324
292 293 296 298 300 300 301 302 302 302 304 306 307 309 308 308 311 308 308 308 310 309 309 309 310 310 310 305 305 305 309 313 308 315 316 316 317 317 317 315 314 313 314 315 316 317 318 318 318 319 321 323 325 327
292 293 297 299 300 300 301 302 302 305 307 308 308 309 309 308 309 309 310 310 309 309 310 309 311 311 311 312 310 311 310 307 314 318 318 315 312 314 314 315 317 316 316 317 318 320 320 320 320 321 321 323 325 327
292 294 299 301 299 300 302 302 304 307 307 308 308 311 310 309 309 309 310 310 310 309 311 312 311 311 312 312 310 310 312 314 312 311 309 306 310 308 311 313 314 311 312 315 318 321 321 322 322 325 328 329 331 331
292 300 302 300 299 300 303 304 308 307 307 307 307 309 308 309 309 308 309 309 309 309 310 311 311 311 311 310 312 312 312 310 308 303 309 307 309 307 308 309 309 308 309 311 312 318 322 323 326 327 326 327 327 326
294 303 299 298 300 302 305 307 307 306 307 307 309 308 307 307 307 307 307 308 308 309 310 310 312 313 310 312 312 307 306 304 302 310 313 312 312 311 309 308 307 307 307 308 311 313 317 319 320 322 323 323 323 324
296 296 297 299 300 305 307 306 307 306 306 307 308 308 308 308 306 307 307 308 308 308 308 310 310 309 311 312 311 305 302 308 310 311 313 313 312 311 311 311 310 310 309 309 310 311 313 316 317 318 319 319 319 321
293 295 297 299 301 305 308 307 307 308 307 307 306 307 307 308 307 306 307 307 308 307 308 309 310 312 312 310 310 310 309 310 309 312 312 312 313 312 312 310 310 310 310 311 311 311 311 311 314 315 316 316 318 317
294 298 301 299 304 308 307 307 307 308 308 307 307 306 307 307 308 307 307 307 307 308 308 308 309 309 309 309 308 309 309 311 312 312 313 312 311 311 312 312 311 311 311 310 310 310 311 311 311 312 313 314 315 315
299 303 301 305 307 307 307 306 307 307 307 307 306 306 306 306 306 307 306 307 307 307 308 308 309 309 309 309 308 309 309 308 307 307 308 311 309 309 310 309 310 311 312 311 312 311 310 311 310 310 311 312 312 311
301 300 303 306 306 306 307 306 306 306 307 307 306 306 307 308 307 306 307 307 307 307 307 308 308 308 308 308 309 309 309 308 308 307 307 308 308 308 309 309 310 310 311 312 311 311 311 310 310 311 312 311 311 312
299 302 305 305 305 306 304 305 307 306 306 306 307 306 306 306 306 306 307 307 306 306 306 307 307 307 308 308 307 307 308 309 309 309 308 308 307 307 307 308 309 310 311 310 311 310 310 310 310 311 311 311 312 312
301 303 305 305 306 305 304 305 306 306 306 306 306 305 305 306 306 306 306 306 305 305 305 306 307 307 307 308 308 307 307 307 307 307 307 308 308 307 306 306 307 307 308 308 309 309 310 310 310 310 310 311 311 311
301 302 303 301 305 304 304 303 304 305 303 304 305 305 306 306 306 305 305 305 305 305 305 305 307 307 308 308 308 307 307 306 307 308 307 307 307 307 307 306 306 306 307 308 308 308 308 308 309 310 311 311 312 311
302 302 303 305 304 304 303 302 302 303 303 302 303 305 305 305 305 304 305 304 304 303 304 305 306 307 306 306 307 307 307 306 307 307 307 307 307 307 308 308 308 307 306 307 307 307 307 308 308 309 310 311 310 311
302 302 304 304 305 304 304 303 303 302 302 301 303 303 303 302 302 303 304 303 302 301 301 302 303 303 305 305 304 304 305 306 306 306 306 305 305 305 306 306 306 305 306 305 307 307 307 307 307 308 308 308 309 309
301 301 303 306 304 304 303 302 302 302 302 302 302 302 301 302 303 303 303 301 300 299 299 300 300 302 303 303 303 303 303 304 305 305 305 304 303 303 303 303 302 302 303 302 303 306 307 306 306 307 307 307 307 307
301 302 302 303 303 303 303 301 301 301 302 302 303 302 301 301 300 300 299 298 298 298 299 299 299 299 302 302 302 302 301 302 303 306 306 306 305 302 300 301 301 302 303 303 301 302 303 305 305 305 306 306 306 306
300 301 302 303 302 301 301 301 301 301 301 301 301 300 300 300 299 298 298 298 298 299 298 298 298 299 302 302 302 302 300 299 298 299 301 301 300 298 298 298 299 299 300 300 301 301 300 303 303 302 301 300 299 302
299 301 302 302 301 300 300 300 300 300 300 300 300 300 299 300 299 298 298 298 298 298 297 298 298 299 301 301 300 300 299 297 296 295 293 296 296 296 296 296 297 297 298 298 298 298 299 299 298 297 297 297 296 296
299 301 301 300 301 301 300 300 300 300 300 300 300 300 300 300 299 300 299 299 298 297 297 298 298 299 299 298 298 297 296 296 294 293 291 292 294 294 294 295 295 296 296 297 297 296 296 296 296 296 295 294 294 293
300 300 300 300 300 300 300 300 301 301 301 303 300 299 299 299 299 299 298 297 297 298 298 297 296 295 294 294 294 294 293 292 287 286 285 286 287 289 291 293 293 294 295 295 295 294 294 293 293 292 291 291 290 290

GFSWCAN_925_thetae_006.txt.gz
Theta_e
298 299 299 300 299 298 299 300 300 300 301 302 302 303 303 303 302 303 305 304 304 305 305 306 306 308 308 309 311 310 314 312 312 314 316 316 315 319 324 325 327 328 330 332 333 333 328 326 326 329 335 339 335 333
298 298 299 299 299 299 299 299 300 300 301 302 302 302 303 303 303 302 305 305 306 305 306 305 305 305 306 306 307 309 311 314 314 316 313 315 316 315 320 326 323 327 330 330 330 331 333 332 335 338 336 335 331 333
296 298 298 298 298 298 298 298 299 300 301 302 302 302 302 302 302 303 304 305 307 307 308 309 309 308 307 306 307 310 311 310 311 313 315 316 318 313 318 320 321 323 323 325 327 329 329 329 330 333 331 332 332 332
295 297 297 298 298 298 298 298 299 301 302 302 302 303 303 302 301 302 304 306 305 307 308 309 307 308 309 308 308 306 309 309 311 310 313 315 317 314 313 315 316 316 320 325 326 327 329 328 329 329 330 330 332 330
296 297 297 297 297 298 298 298 299 300 302 302 302 303 303 302 301 302 304 306 306 307 308 308 307 308 308 307 307 308 310 310 310 310 312 314 311 314 315 313 313 314 317 321 326 322 323 330 329 328 331 330 332 331
295 295 295 296 297 298 298 299 300 301 302 302 302 302 302 302 301 304 308 306 305 304 307 309 308 309 308 308 308 309 310 310 309 309 309 309 311 315 315 314 313 312 314 313 316 318 319 321 328 329 331 331 332 331
294 294 294 295 296 298 299 300 301 302 302 302 302 302 301 301 303 305 307 304 302 304 307 309 310 309 308 309 309 309 310 309 310 310 309 309 309 310 313 314 312 312 313 314 314 313 319 323 326 326 328 330 328 330
292 292 293 294 295 298 299 300 301 302 302 302 302 301 301 301 302 305 307 305 304 305 308 310 310 309 309 310 311 311 310 309 309 310 311 309 309 309 312 311 310 310 310 312 314 314 315 319 322 324 326 327 329 330
292 292 292 293 296 298 299 300 301 302 304 303 304 303 305 305 307 307 304 303 305 306 308 309 310 313 309 309 309 311 310 310 309 310 309 310 310 312 309 309 310 310 311 311 313 314 314 315 320 320 322 326 325 327
292 292 292 293 296 299 299 300 301 302 305 305 307 309 309 308 305 305 307 309 307 307 306 308 309 313 310 309 309 312 312 310 311 310 309 310 312 311 310 309 310 310 310 312 314 316 315 317 319 319 318 319 323 323
291 292 292 293 297 299 299 301 302 303 306 306 308 308 306 307 308 309 310 310 310 310 309 310 312 313 310 311 309 309 311 312 313 312 312 311 311 312 313 311 310 310 312 312 314 315 316 317 318 318 318 317 317 320
291 292 292 293 298 300 299 301 302 304 306 304 303 305 308 311 310 309 310 309 310 311 310 313 312 311 312 306 307 307 310 311 312 313 315 315 316 316 316 316 312 312 312 312 312 314 315 316 316 317 318 318 318 318
291 292 292 296 300 300 299 301 302 303 305 308 308 310 309 309 311 311 310 311 314 311 311 312 313 311 311 307 304 307 309 312 307 313 313 313 309 312 314 317 315 312 312 313 312 312 314 315 315 316 317 318 319 322
291 292 293 301 301 298 299 302 302 306 308 310 309 312 311 311 312 312 313 312 311 311 312 312 312 313 312 309 309 310 311 308 314 316 314 310 305 307 309 314 315 317 317 317 314 314 313 314 314 316 316 317 319 322
291 292 299 300 297 297 299 304 305 308 309 309 309 311 312 311 311 309 309 310 310 313 311 313 312 312 313 311 310 311 311 313 312 311 308 303 301 303 306 307 307 307 311 315 317 318 318 316 316 319 318 318 319 320
292 294 302 297 295 297 301 306 310 308 308 308 308 311 310 310 310 308 308 308 310 310 310 311 311 310 311 311 312 310 310 309 308 304 303 308 304 305 305 304 306 307 308 311 313 314 317 320 321 322 320 321 320 323
292 298 296 294 295 298 305 307 308 308 307 308 309 308 309 309 309 309 308 308 309 309 311 310 310 311 310 311 312 306 309 305 304 309 311 311 311 310 309 310 309 308 308 310 311 312 317 320 322 323 326 326 326 328
295 295 292 296 299 302 308 308 308 308 307 308 308 308 308 309 308 308 308 308 309 309 310 312 310 310 312 312 312 310 307 309 310 310 311 311 312 311 311 311 310 310 309 310 311 312 312 315 320 323 322 322 323 324
293 292 293 298 301 301 310 308 308 309 308 308 308 307 308 308 308 308 309 308 308 309 309 310 310 311 312 312 310 310 313 312 312 312 312 312 313 312 311 309 310 311 311 311 312 312 312 313 315 316 317 319 321 321
293 292 299 302 301 307 308 308 308 309 308 308 307 307 308 308 307 308 308 308 308 308 309 310 310 311 310 311 309 309 311 312 310 311 314 313 312 311 311 312 312 311 311 311 312 312 312 313 313 313 313 314 315 316
294 301 301 301 306 308 308 307 307 307 308 307 307 307 307 307 307 307 308 309 308 307 309 308 309 310 309 311 310 310 311 311 311 309 309 309 310 311 311 311 311 311 312 312 312 312 312 313 312 313 314 313 313 314
297 299 300 302 306 306 307 306 307 306 306 307 307 307 308 309 309 307 306 307 309 308 308 308 307 308 310 310 310 310 309 309 309 309 308 308 308 309 310 310 311 311 311 312 311 311 311 310 312 312 312 313 313 313
299 301 302 306 305 306 305 305 307 307 307 306 307 307 307 307 307 307 306 307 308 307 307 307 306 308 309 308 309 308 308 309 309 309 310 309 308 307 307 307 308 309 310 311 310 310 311 310 311 312 312 313 313 313
299 301 304 305 306 305 305 306 307 307 307 307 307 306 306 306 306 306 306 306 307 307 306 306 306 306 308 308 309 307 308 308 308 307 308 308 310 309 307 306 307 308 308 308 309 309 310 311 311 311 311 312 312 312
300 301 303 304 306 306 305 305 306 306 304 304 304 305 306 305 306 306 306 305 307 307 306 305 305 306 307 308 308 307 308 306 308 309 307 307 307 308 308 307 307 307 307 307 307 308 309 310 311 311 311 310 311 311
301 303 305 305 305 305 306 304 303 304 304 304 304 304 305 305 304 304 304 305 306 305 305 305 305 305 305 306 306 307 306 306 306 308 307 306 306 307 307 307 307 307 306 307 307 307 307 308 308 309 309 309 310 311
301 302 304 303 305 305 305 305 304 304 303 303 303 304 303 303 303 303 305 305 304 303 302 302 303 304 304 304 304 304 304 304 306 306 306 305 305 306 306 306 306 305 305 305 306 307 307 307 307 307 307 307 308 309
299 300 301 303 303 306 306 306 304 303 303 303 303 303 303 303 303 302 304 304 303 301 300 300 300 300 301 303 303 303 303 303 304 305 305 306 305 304 305 305 304 304 304 302 304 306 307 307 307 307 307 307 306 306
299 301 299 299 301 304 305 305 304 303 302 302 305 303 303 302 302 302 301 301 300 300 300 300 300 300 300 302 303 303 302 302 303 304 306 305 302 300 302 302 302 303 303 303 302 303 304 304 304 305 304 306 306 303
299 299 301 302 303 304 304 303 303 303 302 302 302 302 302 302 301 300 300 300 300 300 300 299 299 299 299 300 303 303 301 301 300 300 301 302 300 300 299 299 300 300 300 301 301 302 301 303 302 302 301 300 300 299
299 300 300 303 302 302 302 302 302 301 301 301 301 301 301 301 300 300 300 300 300 300 300 299 298 299 302 302 302 302 301 299 299 298 296 297 298 298 297 297 298 298 299 299 299 299 300 300 299 299 299 298 297 296
300 300 301 301 304 303 302 301 302 301 301 301 302 301 301 301 300 301 300 300 300 300 298 298 300 300 300 300 299 299 297 297 295 292 290 292 294 294 294 296 296 297 298 298 298 298 298 298 298 296 295 294 294 293
301 299 300 300 303 301 301 301 302 301 302 304 301 300 300 300 300 301 299 299 299 299 299 299 298 297 297 297 296 295 294 291 289 287 286 287 288 290 293 293 294 296 296 296 296 295 295 294 293 292 291 290 290 289

GFSWCAN_925_thetae_009.txt.gz
Theta_e
295 296 297 298 298 298 298 298 298 299 300 302 302 302 302 303 303 303 303 304 303 303 304 305 306 307 306 306 308 308 310 309 311 313 316 316 314 315 316 319 324 327 330 330 326 330 328 325 323 324 322 329 327 326
295 296 296 296 297 297 298 298 298 299 300 301 302 302 302 303 303 303 304 304 304 306 305 305 305 305 306 305 306 309 306 308 311 314 314 315 317 317 316 318 318 330 325 328 327 329 326 325 327 329 328 326 325 329
296 296 294 294 295 296 297 298 298 299 300 301 301 302 302 303 303 303 303 304 305 306 305 307 309 308 308 306 306 308 309 309 310 310 313 314 317 317 317 317 316 318 316 324 326 327 323 326 323 323 328 327 329 328
294 294 293 293 294 295 297 298 299 300 300 301 301 302 302 303 303 302 303 303 305 306 307 307 305 307 308 308 307 307 308 309 309 310 311 313 314 314 315 316 315 316 315 319 324 320 321 321 319 321 330 326 331 327
292 292 292 293 293 294 296 298 299 300 301 301 302 302 302 303 303 301 302 304 306 305 307 305 305 308 309 309 309 309 309 308 307 309 310 311 311 313 314 314 315 315 316 319 322 316 317 316 315 320 325 328 330 330
291 292 292 292 293 294 296 298 299 300 301 302 302 302 302 302 302 303 307 306 303 303 305 307 306 308 308 308 309 309 309 309 308 309 309 309 308 311 313 311 313 313 314 315 314 315 314 314 316 317 317 325 328 329
291 291 292 292 293 294 297 299 299 301 301 302 303 303 301 301 301 305 307 305 304 304 307 308 308 308 309 309 308 308 308 308 308 308 308 308 308 312 311 311 311 310 312 313 313 313 314 314 315 314 314 325 325 328
291 291 291 292 292 295 298 299 299 301 302 304 304 304 302 300 301 304 306 306 304 305 307 308 309 309 309 310 310 308 310 309 308 308 309 309 309 308 309 308 309 309 309 311 311 313 315 314 313 314 314 318 325 325
291 291 291 292 292 296 299 299 299 301 302 305 306 305 305 305 308 307 305 304 304 305 308 309 311 311 310 310 309 310 310 309 308 308 309 309 309 309 310 309 309 308 309 310 309 311 313 313 314 314 314 315 320 323
291 292 291 291 292 298 300 298 299 301 305 306 307 309 311 307 306 306 307 308 308 308 307 307 309 311 311 309 309 310 311 310 311 310 310 309 309 308 309 310 308 308 308 309 310 314 312 314 314 315 316 317 318 320
291 292 291 291 294 300 298 297 299 302 307 307 308 310 307 307 309 310 311 311 311 311 310 310 312 312 311 311 310 307 307 308 313 313 314 313 313 311 310 311 311 312 309 308 310 311 312 313 313 314 317 318 317 317
291 292 292 292 299 298 295 296 299 302 304 304 303 305 307 312 311 311 311 310 311 312 311 312 312 312 310 306 307 305 307 309 312 308 313 315 310 307 306 307 309 312 314 309 309 311 313 314 314 315 316 316 316 317
291 292 292 293 300 296 294 296 301 304 305 308 308 311 309 310 310 311 312 314 313 311 311 311 313 311 310 304 304 306 306 309 307 311 313 309 309 304 303 305 309 311 311 314 314 311 312 312 314 314 315 315 315 315
290 292 292 296 297 293 293 298 303 306 307 312 311 308 312 311 311 311 312 312 311 311 311 312 313 313 312 309 308 310 310 307 312 312 312 308 306 305 303 306 307 307 308 310 314 316 317 312 314 314 314 314 314 315
290 292 294 298 294 294 296 299 304 307 311 311 311 309 312 312 311 311 310 309 310 309 311 312 312 311 311 309 309 309 309 311 311 310 306 305 305 305 306 306 307 307 308 309 311 314 315 315 317 317 314 313 314 316
290 292 299 294 292 295 298 303 307 311 310 310 310 311 312 311 310 310 309 309 309 310 311 310 310 311 311 310 309 309 310 311 308 303 303 305 309 306 308 308 309 308 308 310 310 312 313 314 315 316 317 318 318 318
290 294 294 293 292 296 300 305 310 311 309 309 313 311 311 310 311 310 309 309 308 310 312 311 311 311 310 309 309 306 309 307 306 309 310 311 311 311 310 309 310 309 308 309 310 311 313 315 318 317 318 318 321 325
292 291 292 293 293 301 304 309 310 309 308 310 311 310 310 309 310 309 309 309 309 310 310 312 311 311 310 308 309 308 306 307 308 310 311 311 311 311 310 309 310 310 311 311 311 312 312 314 316 317 318 322 323 322
290 290 292 296 297 298 307 310 309 310 310 309 309 309 308 310 308 309 310 309 309 310 310 311 311 312 312 311 311 310 310 311 311 311 311 311 311 311 311 310 311 311 311 311 311 312 313 313 313 314 317 318 317 319
291 293 299 300 300 305 309 310 308 311 311 310 308 307 308 309 309 310 309 310 310 308 309 310 311 310 310 311 310 310 310 311 311 309 309 312 310 311 310 310 310 311 311 311 311 311 313 313 314 313 313 314 315 315
291 295 295 298 301 304 309 309 309 311 310 309 308 308 308 309 309 310 310 309 309 310 309 309 309 310 309 309 309 310 309 308 309 308 308 308 309 309 309 309 310 310 310 310 311 310 310 312 313 313 313 313 314 315
294 295 298 302 303 306 309 309 308 308 308 308 307 307 309 312 310 308 309 309 310 309 309 308 307 309 309 310 310 309 309 309 308 308 309 309 308 306 307 308 308 310 309 310 310 310 310 310 311 312 313 314 313 312
297 300 301 303 306 304 305 306 307 308 308 309 310 308 309 310 308 308 309 308 309 309 308 307 306 308 309 308 307 307 307 309 309 308 308 307 309 308 307 307 307 308 307 307 309 310 311 310 310 310 311 311 313 312
298 299 302 304 306 305 306 307 311 310 309 309 310 307 307 307 306 307 308 307 308 308 307 308 306 306 307 309 309 307 307 308 308 308 307 308 308 308 307 307 307 307 307 308 308 308 309 310 310 310 309 310 310 312
297 298 301 302 305 307 306 307 307 308 308 307 308 307 308 306 307 305 305 306 308 308 306 306 305 305 306 307 307 308 307 307 308 308 308 307 308 307 308 307 306 306 306 307 307 308 308 308 308 309 309 310 310 309
296 298 302 304 305 306 307 306 306 306 306 306 306 306 308 306 304 304 305 305 307 307 306 305 306 304 304 304 306 306 305 305 306 307 307 306 306 306 306 307 306 305 304 305 307 307 307 307 307 307 308 309 309 310
298 299 301 302 305 304 305 306 306 305 305 305 308 307 306 303 304 304 306 307 306 305 303 302 303 304 304 304 303 303 303 303 304 306 305 306 304 304 306 305 305 305 303 304 307 307 307 307 307 306 306 305 306 306
297 299 299 301 302 302 303 304 305 305 305 305 305 305 304 304 306 303 306 305 305 304 302 301 300 300 300 302 304 303 302 302 303 303 305 305 304 303 302 303 304 304 303 303 305 305 305 306 307 306 305 302 302 302
298 299 299 299 300 301 300 301 301 302 304 303 304 304 303 303 304 303 303 302 302 302 301 300 301 300 300 300 303 303 302 301 302 303 305 303 302 300 300 300 300 301 303 302 303 303 303 303 303 303 302 301 299 298
297 298 300 300 301 300 299 300 303 303 302 303 304 303 302 303 303 302 301 301 301 301 300 300 300 299 300 303 304 302 301 300 299 298 299 299 299 300 299 298 299 299 300 300 301 301 302 301 301 300 299 297 296 294
298 299 300 299 299 300 301 302 302 303 303 303 302 302 302 302 301 300 301 301 301 300 300 301 302 302 303 302 302 301 299 299 299 295 295 296 297 297 296 297 297 298 299 299 299 300 299 298 297 297 296 294 293 292
300 300 300 300 301 302 302 303 303 303 302 302 301 302 301 302 302 301 301 301 301 301 300 301 301 300 300 299 299 298 296 293 292 291 290 290 291 293 293 294 295 297 298 298 298 297 297 296 294 293 292 291 290 289
301 301 302 301 302 302 302 303 302 302 302 302 302 301 301 302 301 300 299 298 299 299 299 298 297 297 297 296 295 293 292 290 288 287 286 287 288 290 291 293 295 296 295 295 294 294 293 292 290 289 289 288 287 287